TimeCST,TemperatureF,Dew PointF,Humidity,Sea Level PressureIn,VisibilityMPH,Wind Direction,Wind SpeedMPH,Gust SpeedMPH,PrecipitationIn,Events,Conditions,WindDirDegrees,DateUTC
12:41 AM,64.9,61.0,87,29.77,5.0,South,12.7,21.9,0.09,Rain,Rain,180,2013-12-21 06:41:00
12:53 AM,64.9,61.0,87,29.75,4.0,South,13.8,-,0.14,Rain,Rain,170,2013-12-21 06:53:00
1:53 AM,64.0,61.0,90,29.72,6.0,SSE,10.4,-,0.22,Rain,Light Rain,160,2013-12-21 07:53:00
2:25 AM,63.0,61.0,93,29.73,4.0,SSE,9.2,-,0.04,Rain-Thunderstorm,Rain,160,2013-12-21 08:25:00
2:33 AM,63.0,61.0,93,29.71,2.0,SE,10.4,-,0.11,Rain-Thunderstorm,Heavy Thunderstorms and Rain,140,2013-12-21 08:33:00
2:36 AM,63.0,61.0,93,29.70,1.5,SE,10.4,-,0.17,Rain-Thunderstorm,Heavy Thunderstorms and Rain,140,2013-12-21 08:36:00
2:45 AM,63.0,61.0,93,29.72,2.0,South,10.4,-,0.32,Rain-Thunderstorm,Thunderstorms and Rain,170,2013-12-21 08:45:00
2:49 AM,62.6,60.8,94,29.72,3.0,South,8.1,-,0.35,Rain-Thunderstorm,Heavy Thunderstorms and Rain,180,2013-12-21 08:49:00
2:53 AM,63.0,61.0,93,29.70,3.0,SSE,9.2,-,0.37,Rain-Thunderstorm,Heavy Rain,160,2013-12-21 08:53:00
3:05 AM,63.0,60.1,90,29.71,6.0,South,8.1,-,0.06,Rain-Thunderstorm,Light Thunderstorms and Rain,170,2013-12-21 09:05:00
3:14 AM,63.0,60.1,90,29.71,7.0,South,6.9,-,0.09,Rain-Thunderstorm,Light Rain,180,2013-12-21 09:14:00
3:30 AM,63.0,60.1,90,29.69,8.0,SE,8.1,-,0.10,Rain,Light Rain,140,2013-12-21 09:30:00
3:37 AM,63.0,60.1,90,29.67,10.0,SE,10.4,-,0.10,Thunderstorm,Overcast,140,2013-12-21 09:37:00
3:53 AM,63.0,60.1,90,29.65,10.0,SSE,10.4,-,0.10,Rain-Thunderstorm,Light Thunderstorms and Rain,160,2013-12-21 09:53:00
4:06 AM,64.9,61.0,87,29.67,6.0,South,9.2,-,0.01,Rain,Light Rain,180,2013-12-21 10:06:00
4:08 AM,64.9,61.0,87,29.67,6.0,South,8.1,-,0.02,Rain-Thunderstorm,Light Rain,190,2013-12-21 10:08:00
4:28 AM,64.0,61.0,90,29.66,10.0,South,6.9,-,0.05,,Overcast,190,2013-12-21 10:28:00
4:47 AM,66.2,60.8,83,29.64,10.0,South,9.2,20.7,0.05,,Overcast,180,2013-12-21 10:47:00
4:53 AM,66.0,61.0,84,29.63,10.0,South,12.7,19.6,0.05,,Overcast,190,2013-12-21 10:53:00
5:33 AM,66.9,61.0,81,29.65,9.0,SSW,11.5,21.9,0.01,Rain-Thunderstorm,Light Rain,210,2013-12-21 11:33:00
5:53 AM,66.0,62.1,87,29.65,7.0,SW,11.5,18.4,0.01,Rain,Light Rain,220,2013-12-21 11:53:00
6:28 AM,52.0,50.0,93,29.68,8.0,WNW,8.1,24.2,0.02,Rain,Light Rain,290,2013-12-21 12:28:00
6:36 AM,53.1,50.0,89,29.70,2.5,WNW,13.8,19.6,0.05,Rain,Heavy Rain,300,2013-12-21 12:36:00
6:40 AM,51.1,48.9,92,29.68,1.8,NNW,10.4,19.6,0.10,Rain,Heavy Rain,330,2013-12-21 12:40:00
6:46 AM,50.0,46.9,89,29.69,3.0,NNW,13.8,-,0.13,Rain,Light Rain,330,2013-12-21 12:46:00
6:49 AM,50.0,46.4,87,29.71,3.0,NW,10.4,-,0.13,Rain,Light Rain,310,2013-12-21 12:49:00
6:53 AM,48.9,46.0,90,29.69,4.0,NNW,16.1,20.7,0.15,Rain,Rain,340,2013-12-21 12:53:00
7:25 AM,48.0,45.0,89,29.72,2.5,North,11.5,-,0.12,Rain,Heavy Rain,350,2013-12-21 13:25:00
7:29 AM,48.0,46.0,93,29.71,3.0,NNE,8.1,-,0.14,Rain,Rain,20,2013-12-21 13:29:00
7:53 AM,48.0,46.0,93,29.70,2.5,NE,9.2,-,0.21,Rain,Rain,40,2013-12-21 13:53:00
8:02 AM,48.9,46.0,90,29.72,3.0,NNE,4.6,-,0.03,Rain,Light Rain,30,2013-12-21 14:02:00
8:04 AM,48.9,46.0,90,29.72,1.8,NNE,6.9,-,0.03,Rain,Rain,30,2013-12-21 14:04:00
8:20 AM,48.9,46.9,93,29.71,3.0,ENE,4.6,-,0.18,Rain,Light Rain,60,2013-12-21 14:20:00
8:24 AM,48.9,46.9,93,29.71,2.5,ENE,4.6,-,0.19,Rain,Rain,70,2013-12-21 14:24:00
8:35 AM,48.9,46.9,93,29.72,3.0,ENE,4.6,-,0.23,Rain,Rain,70,2013-12-21 14:35:00
8:43 AM,48.9,46.9,93,29.72,4.0,ENE,5.8,-,0.25,Rain,Light Rain,60,2013-12-21 14:43:00
8:53 AM,50.0,46.9,89,29.70,10.0,East,4.6,-,0.26,Rain,Light Rain,80,2013-12-21 14:53:00
9:09 AM,50.0,48.0,93,29.70,9.0,NNE,5.8,-,0.01,Rain,Light Rain,30,2013-12-21 15:09:00
9:20 AM,50.0,48.0,93,29.71,10.0,NNE,3.5,-,0.01,,Overcast,20,2013-12-21 15:20:00
9:33 AM,50.0,48.0,93,29.73,2.5,North,4.6,-,0.03,Rain-Thunderstorm,Heavy Thunderstorms and Rain,360,2013-12-21 15:33:00
9:43 AM,50.0,48.0,93,29.71,2.5,ENE,4.6,-,0.09,Rain-Thunderstorm,Thunderstorms and Rain,60,2013-12-21 15:43:00
9:50 AM,50.0,48.2,94,29.71,4.0,East,6.9,-,0.11,Rain-Thunderstorm,Light Thunderstorms and Rain,90,2013-12-21 15:50:00
9:53 AM,50.0,48.0,93,29.71,4.0,East,8.1,-,0.11,Rain-Thunderstorm,Thunderstorms and Rain,100,2013-12-21 15:53:00
10:09 AM,51.1,48.9,92,29.71,2.5,East,4.6,-,0.06,Rain-Thunderstorm,Thunderstorms and Rain,90,2013-12-21 16:09:00
10:23 AM,51.1,48.9,92,29.71,4.0,East,3.5,-,0.11,Rain-Thunderstorm,Thunderstorms and Rain,90,2013-12-21 16:23:00
10:33 AM,52.0,50.0,93,29.72,5.0,Calm,Calm,-,0.13,Rain,Light Rain,0,2013-12-21 16:33:00
10:53 AM,52.0,50.0,93,29.72,3.0,NNW,6.9,-,0.17,Rain,Rain,330,2013-12-21 16:53:00
10:59 AM,51.1,48.9,92,29.74,1.8,WNW,9.2,-,0.02,Rain,Rain,300,2013-12-21 16:59:00
11:02 AM,51.1,48.9,92,29.74,1.0,NW,8.1,-,0.05,Rain,Heavy Rain,310,2013-12-21 17:02:00
11:04 AM,51.1,48.9,92,29.74,0.8,NW,9.2,-,0.11,Rain,Heavy Rain,310,2013-12-21 17:04:00
11:17 AM,51.1,48.9,92,29.73,2.0,NW,3.5,-,0.24,Rain,Light Rain,320,2013-12-21 17:17:00
11:25 AM,51.1,48.9,92,29.74,6.0,NW,4.6,-,0.25,Rain,Light Rain,310,2013-12-21 17:25:00
11:36 AM,51.1,48.0,89,29.71,4.0,North,6.9,-,0.27,Rain,Light Rain,360,2013-12-21 17:36:00
11:53 AM,51.1,48.9,92,29.69,10.0,ENE,4.6,-,0.27,Rain,Light Rain,60,2013-12-21 17:53:00
12:11 PM,51.1,48.9,92,29.67,9.0,East,5.8,-,0.01,Rain,Light Rain,80,2013-12-21 18:11:00
12:50 PM,51.8,48.2,88,29.61,3.0,East,9.2,-,0.12,Rain,Rain,80,2013-12-21 18:50:00
12:53 PM,51.1,48.9,92,29.60,3.0,East,9.2,-,0.14,Rain,Rain,90,2013-12-21 18:53:00
1:19 PM,50.0,48.0,93,29.62,1.8,Variable,6.9,20.7,0.09,Rain,Heavy Rain,0,2013-12-21 19:19:00
1:31 PM,50.0,48.0,93,29.59,1.5,ENE,8.1,-,0.22,Rain,Rain,70,2013-12-21 19:31:00
1:35 PM,51.1,48.9,92,29.60,2.5,ESE,9.2,-,0.23,Rain,Rain,110,2013-12-21 19:35:00
1:51 PM,51.8,48.2,88,29.56,4.0,East,8.1,-,0.27,Rain,Light Rain,90,2013-12-21 19:51:00
1:53 PM,51.1,48.9,92,29.56,4.0,East,8.1,-,0.28,Rain,Light Rain,80,2013-12-21 19:53:00
2:06 PM,52.0,50.0,93,29.56,2.5,NNW,6.9,-,0.03,Rain,Heavy Rain,340,2013-12-21 20:06:00
2:17 PM,51.1,48.9,92,29.57,1.2,NNW,6.9,-,0.12,Rain,Heavy Rain,330,2013-12-21 20:17:00
2:25 PM,52.0,50.0,93,29.55,0.8,North,10.4,-,0.24,Rain-Thunderstorm,Thunderstorms and Rain,10,2013-12-21 20:25:00
2:33 PM,52.0,51.1,97,29.54,1.2,ESE,9.2,-,0.31,Rain-Thunderstorm,Thunderstorms and Rain,120,2013-12-21 20:33:00
2:50 PM,53.6,51.8,94,29.52,1.0,East,8.1,-,0.57,Rain,Heavy Rain,90,2013-12-21 20:50:00
2:53 PM,53.1,52.0,96,29.52,1.0,East,8.1,-,0.60,Rain,Heavy Rain,80,2013-12-21 20:53:00
3:01 PM,54.0,52.0,93,29.54,1.8,Calm,Calm,-,0.04,Rain,Rain,0,2013-12-21 21:01:00
3:25 PM,54.0,53.1,97,29.49,2.0,East,5.8,-,0.19,Rain,Light Rain,90,2013-12-21 21:25:00
3:42 PM,55.0,53.1,93,29.47,2.5,East,5.8,-,0.26,Rain-Thunderstorm,Thunderstorms and Rain,90,2013-12-21 21:42:00
3:53 PM,55.0,54.0,96,29.47,3.0,ESE,5.8,-,0.28,Rain-Thunderstorm,Thunderstorms and Rain,120,2013-12-21 21:53:00
4:01 PM,55.9,54.0,93,29.47,2.5,SE,8.1,-,0.03,Rain-Thunderstorm,Heavy Thunderstorms and Rain,130,2013-12-21 22:01:00
4:05 PM,55.9,54.0,93,29.54,2.5,North,-9999.0,-,0.07,Rain,Heavy Rain,0,2013-12-21 22:05:00
4:09 PM,55.9,54.0,93,29.54,1.8,West,16.1,-,0.10,Rain,Heavy Rain,270,2013-12-21 22:09:00
4:45 PM,57.9,55.9,93,29.52,1.8,West,16.1,-,0.75,Rain,Heavy Rain,270,2013-12-21 22:45:00
4:53 PM,59.0,57.0,93,29.52,1.0,West,16.1,-,0.90,Rain-Thunderstorm,Heavy Thunderstorms and Rain,270,2013-12-21 22:53:00
5:02 PM,60.1,57.9,93,29.51,2.0,South,10.4,16.1,0.12,Rain-Thunderstorm,Heavy Thunderstorms and Rain,170,2013-12-21 23:02:00
5:23 PM,62.1,60.1,93,29.50,5.0,SSW,11.5,21.9,0.24,Rain-Thunderstorm,Light Rain,210,2013-12-21 23:23:00
5:33 PM,63.0,60.1,90,29.53,5.0,SW,11.5,-,0.27,Rain-Thunderstorm,Thunderstorms and Rain,220,2013-12-21 23:33:00
5:42 PM,62.1,60.1,93,29.51,4.0,WSW,9.2,-,0.31,Rain,Rain,240,2013-12-21 23:42:00
5:53 PM,61.0,59.0,93,29.50,5.0,NW,9.2,-,0.33,Rain,Light Rain,320,2013-12-21 23:53:00
6:03 PM,52.0,50.0,93,29.53,6.0,WNW,4.6,-,0.02,Rain,Rain,300,2013-12-22 00:03:00
6:12 PM,48.9,46.9,93,29.53,2.0,NW,9.2,-,0.04,Rain,Light Rain,320,2013-12-22 00:12:00
6:22 PM,48.9,46.0,90,29.50,5.0,NNW,8.1,-,0.06,Rain,Rain,340,2013-12-22 00:22:00
6:37 PM,48.0,46.0,93,29.52,4.0,NW,8.1,-,0.10,Rain-Thunderstorm,Rain,310,2013-12-22 00:37:00
6:46 PM,46.9,45.0,93,29.53,4.0,NW,8.1,-,0.13,Rain-Thunderstorm,Thunderstorms and Rain,320,2013-12-22 00:46:00
6:53 PM,46.9,45.0,93,29.54,3.0,WNW,10.4,-,0.16,Rain-Thunderstorm,Heavy Thunderstorms and Rain,290,2013-12-22 00:53:00
7:04 PM,46.0,44.1,93,29.51,4.0,NNW,8.1,-,0.05,Rain,Rain,340,2013-12-22 01:04:00
7:15 PM,45.0,43.0,93,29.51,5.0,North,5.8,-,0.08,Rain-Thunderstorm,Thunderstorms and Rain,360,2013-12-22 01:15:00
7:27 PM,45.0,42.1,90,29.53,6.0,NNW,11.5,-,0.11,Rain-Thunderstorm,Rain,340,2013-12-22 01:27:00
7:53 PM,43.0,39.9,89,29.57,5.0,NW,13.8,19.6,0.19,Rain-Thunderstorm,Rain,320,2013-12-22 01:53:00
8:34 PM,41.0,39.0,93,29.53,5.0,East,6.9,-,0.15,Rain,Rain,80,2013-12-22 02:34:00
8:53 PM,42.1,39.0,89,29.56,5.0,North,-9999.0,-,0.21,Rain,Rain,0,2013-12-22 02:53:00
9:53 PM,41.0,39.0,93,29.59,10.0,WNW,6.9,-,0.11,,Overcast,290,2013-12-22 03:53:00
10:53 PM,41.0,37.9,89,29.63,10.0,WSW,6.9,-,N/A,,Overcast,250,2013-12-22 04:53:00
11:53 PM,41.0,37.9,89,29.65,10.0,West,12.7,-,N/A,,Overcast,280,2013-12-22 05:53:00